Location: Northcutt
(34.7304°N, 84.4305°W)
Time: 08:42:12
(UTC+00:00)

A-11 Canister half - Pass Details

Date: 09 October 2022
Orbit: 1524 x 1685 km, 47.3° (Epoch: 08 December)

Event Time Altitude Azimuth Distance (km) Brightness Sun altitude
Rises 21:04:17 0° 275° (W) 4,673 12.4 23.9°
Reaches altitude 10° 21:07:37 10° 283° (WNW) 3,688 11.9 23.3°
Maximum altitude 21:16:11 40° 351° (N) 2,129 9.9 21.7°
Drops below altitude 10° 21:24:53 10° 58° (ENE) 3,736 10.5 20.1°
Sets 21:28:18 0° 66° (ENE) 4,740 11.0 19.5°
